GSAT0222 (PRN E33)

Last updated on Jan. 18, 2021, 6:31 a.m. UTC

1 43565U 18060B   21017.49365602 -.00000076  00000-0  00000-0 0  9998
2 43565  56.9394  35.1960 0005903 280.1475  79.8238  1.70476138 15515
UTC
Height (km)
Latitude
Longitude
Inclination
Orbital Period
UTC large
Height (km)
Speed (km/s)
/
Latitude / Longitude
Inclination (degrees)
Orbital Period (minutes)
Azimuth
Elevation
Range (km)
Doppler Factor
iOS Compass Heading
iOS Angle

Next 30 passes for location: Hong Kong

Rise time Rise Azimuth (degrees) Set time Set Azimuth (degrees) Duration Max altitude (degrees)

No matching passes for this satellites